EW8359 Weather Reports


Display with metric or nautical units.
time (UTC)temp
F
wind
direction
speed
MPH
gust
MPH
rain 1hr
in
rain 24hr
in
rain mn
in
humidity
%
barometer
mb
20260507010044 59 231 0.0 7.0 0.01 0.69 0.69 94 1002.2
20260507004540 59 200 0.0 4.0 0.00 0.68 0.68 94 1002.2
20260507003037 59 153 0.0 5.0 0.00 0.68 0.68 93 1002.2
20260507001537 59 137 3.0 9.0 0.00 0.68 0.68 93 1002.1
20260507000037 59 144 0.0 5.0 0.00 0.68 0.68 93 1001.9
20260506234538 59 136 1.0 9.0 0.00 0.68 0.68 93 1002.0
20260506233033 59 150 2.0 11.0 0.00 0.68 0.68 94 1002.1
20260506231531 59 267 0.0 14.0 0.00 0.68 0.68 94 1002.2
20260506230034 59 159 2.0 7.0 0.00 0.68 0.68 94 1002.3
20260506224531 59 225 2.0 8.0 0.00 0.68 0.68 94 1002.3
20260506223030 59 169 1.0 9.0 0.01 0.68 0.68 95 1002.4
20260506221529 59 144 3.0 9.0 0.02 0.68 0.68 95 1002.3
20260506220034 59 140 0.0 7.0 0.04 0.68 0.68 95 1002.5
20260506214526 59 222 1.0 8.0 0.05 0.68 0.68 94 1002.6
20260506213029 59 159 0.0 8.0 0.07 0.67 0.67 94 1002.7
20260506211527 59 151 0.0 5.0 0.11 0.66 0.66 94 1002.9
20260506210028 60 155 1.0 6.0 0.11 0.64 0.64 94 1003.2
20260506204526 60 128 2.0 8.0 0.11 0.63 0.63 94 1003.1
20260506203027 60 138 0.0 7.0 0.08 0.59 0.59 93 1003.2
20260506201521 61 158 0.0 0.0 0.06 0.54 0.54 93 1003.2
20260506200018 61 151 0.0 8.0 0.11 0.53 0.53 93 1003.2
20260506194517 61 162 0.0 6.0 0.14 0.52 0.52 93 1003.4
20260506193017 61 153 0.0 0.0 0.28 0.51 0.51 92 1003.7
20260506191515 61 171 0.0 2.0 0.40 0.48 0.48 92 1003.9
20260506190011 61 161 0.0 7.0 0.41 0.42 0.42 91 1003.9
20260506184508 61 139 0.0 3.0 0.38 0.38 0.38 89 1004.2
20260506183007 62 201 0.0 2.0 0.23 0.23 0.23 86 1004.3
20260506181506 64 227 0.0 2.0 0.08 0.08 0.08 80 1003.8
20260506180007 67 198 0.0 7.0 0.00 0.00 0.00 72 1003.6
20260506174503 69 180 0.0 11.0 0.00 0.00 0.00 65 1003.4
20260506173002 69 135 0.0 5.0 0.00 0.00 0.00 64 1003.5
20260506171602 70 235 0.0 11.0 0.00 0.00 0.00 64 1003.7
20260506170100 70 86 0.0 6.0 0.00 0.00 0.00 64 1003.8
20260506164558 70 222 2.0 9.0 0.00 0.00 0.00 63 1004.2
20260506163054 69 175 1.0 13.0 0.00 0.00 0.00 65 1004.6
20260506161557 68 213 0.0 15.0 0.00 0.00 0.00 66 1005.1
20260506160047 69 261 2.0 11.0 0.00 0.00 0.00 66 1005.6
20260506154546 68 265 2.0 9.0 0.00 0.00 0.00 67 1005.7
20260506153045 68 118 0.0 9.0 0.00 0.00 0.00 69 1005.8
20260506151600 68 223 0.0 7.0 0.00 0.00 0.00 68 1005.7
20260506150040 67 228 0.0 8.0 0.00 0.00 0.00 70 1005.7
20260506144537 66 252 0.0 11.0 0.00 0.00 0.00 72 1005.7
20260506143044 66 117 0.0 2.0 0.00 0.00 0.00 73 1005.6
20260506141532 65 197 0.0 8.0 0.00 0.00 0.00 72 1005.6
20260506140035 65 216 0.0 3.0 0.00 0.00 0.00 73 1005.7
20260506134528 64 140 0.0 9.0 0.00 0.00 0.00 73 1006.2
20260506133026 64 129 0.0 4.0 0.00 0.00 0.00 74 1006.1
20260506131528 64 164 0.0 5.0 0.00 0.00 0.00 73 1006.2
20260506130024 64 73 0.0 1.0 0.00 0.00 0.00 74 1006.1
20260506124522 63 257 0.0 0.0 0.00 0.00 0.00 75 1006.1
20260506123022 63 128 0.0 8.0 0.00 0.00 0.00 74 1006.3
20260506121518 62 190 1.0 12.0 0.00 0.00 0.00 76 1006.1
20260506120015 61 138 0.0 6.0 0.00 0.00 0.00 78 1006.5
20260506114519 61 165 1.0 9.0 0.00 0.00 0.00 78 1006.4
20260506113013 60 235 0.0 0.0 0.00 0.00 0.00 79 1006.7
20260506111510 60 228 0.0 4.0 0.00 0.00 0.00 79 1007.0
20260506110009 59 208 0.0 5.0 0.00 0.00 0.00 79 1006.7
20260506104506 59 167 0.0 9.0 0.00 0.00 0.00 80 1006.8
20260506103010 57 188 0.0 5.0 0.00 0.00 0.00 83 1006.8
20260506101504 55 162 0.0 0.0 0.00 0.00 0.00 85 1006.3
20260506100002 55 118 0.0 0.0 0.00 0.00 0.00 85 1006.7
20260506094505 54 115 0.0 0.0 0.00 0.00 0.00 84 1006.3
20260506093105 55 114 0.0 0.0 0.00 0.00 0.00 83 1006.6
20260506091555 56 114 0.0 0.0 0.00 0.00 0.00 81 1006.3
20260506090053 57 114 0.0 0.0 0.00 0.00 0.00 80 1006.4
20260506084552 57 113 0.0 0.0 0.00 0.00 0.00 80 1006.4
20260506083048 57 111 0.0 0.0 0.00 0.00 0.00 80 1006.3
20260506081548 57 108 0.0 0.0 0.00 0.00 0.00 79 1006.2
20260506073047 58 106 0.0 0.0 0.00 0.00 0.00 77 1006.3
20260506071557 57 114 0.0 0.0 0.00 0.00 0.00 80 1006.1
20260506061538 58 190 0.0 0.0 0.00 0.00 0.00 78 1005.8
20260506044528 58 183 0.0 0.0 0.00 0.00 0.00 83 1005.8
20260506043027 58 183 0.0 0.0 0.00 0.00 0.00 83 1005.7
20260506041530 58 246 0.0 0.0 0.00 0.00 0.00 82 1005.8
20260506040026 58 247 0.0 0.0 0.00 0.00 0.00 82 1005.9
20260506034521 59 247 0.0 0.0 0.00 0.00 0.00 80 1005.8
20260506033027 59 247 0.0 0.0 0.00 0.00 0.00 80 1005.5
20260506031525 60 247 0.0 0.0 0.00 0.00 0.00 79 1005.6
20260506030024 60 247 0.0 0.0 0.00 0.00 0.00 77 1005.6
20260506024520 62 247 0.0 0.0 0.00 0.00 0.00 75 1005.5
20260506023018 63 247 0.0 0.0 0.00 0.00 0.00 74 1005.7
20260506021518 64 247 0.0 0.0 0.00 0.00 0.00 72 1006.1
20260506020022 64 248 0.0 0.0 0.00 0.00 0.00 71 1005.9
20260506014519 65 256 0.0 0.0 0.00 0.00 0.00 70 1006.0
20260506013025 65 184 0.0 0.0 0.00 0.00 0.00 69 1005.8
20260506011517 66 181 0.0 0.0 0.00 0.00 0.00 67 1006.1